VCC C (44430 NORAD) Tracking and Keplerian Element Data

This shows tracking and keplerian element data for the satellite.

Feedback or suggestion? Click here.




ElementValue
Catalog44430
NameVCC C
Epoch Orbit578
Epoch Day228.83577076
Epoch Year2019
RAAN60.0693
Inclination51.6427
Eccentricity0.0002764
Argument of Perigee281.7756
Mean Anonmoly78.2924
Mean Motion15.52132942
Decay Rate5.434E-05
L11 44430U 98067QQ 19228.83577076 .00005434 00000-0 95758-4 0 9994
L22 44430 51.6427 60.0693 0002764 281.7756 78.2924 15.52132942 5787

Live tracking and technical data element details for VCC C (NORAD 44430). VCC C can be tracked NOW for your location showing map with azimuth and elevation plus other details from your city location.

Track the satellite on the map from your city or location and see movement details for azimuth, elevation, latitude, longitude, range, height, and movement on the map or in text.







IsCatalogInMostPopularTable: catalog: 44430, numindb: 11
Update: records affected: 1



GetName: 44430 VCC C

Hit Count: updated at: Wed, 21 Aug 2019 11:11:52 GMT